User: anonymous   Login
Location: Unspecified
(0.0000°N, 0.0000°E)
Time: 08:33:13
(UTC+00:00)
Language:

SNUSAT-1 - Orbit

View from above orbital plane
View from above orbital plane
View from above satellite
View from above satellite

Ground track
Ground track

The orbit data is extracted from the following two-line orbital elements,

1 42727U 98067MG  18267.88215450 +.00041010 +00000-0 +27685-3 0  9996
2 42727 051.6330 207.9151 0004283 191.1564 168.9341 15.74647673076163
Epoch (UTC): 24 September 2018 21:10:18
Eccentricity: 0.0004283
inclination: 51.6330°
perigee height: 343 km
apogee height: 348 km
right ascension of ascending node: 207.9151°
argument of perigee: 191.1564°
revolutions per day: 15.74647673
mean anomaly at epoch: 168.9341°
orbit number at epoch: 7616

The dashed part of the orbit path shows where the satellite is in the earth's shadow,  

DLR